EDRS-C (44475 NORAD) Tracking and Keplerian Element Data

This shows tracking and keplerian element data for the satellite.

Feedback or suggestion? Click here.




ElementValue
Catalog44475
NameEDRS-C
Epoch Orbit17
Epoch Day228.89864375
Epoch Year2019
RAAN284.8613
Inclination0.0642
Eccentricity0.000289
Argument of Perigee325.2361
Mean Anonmoly56.7699
Mean Motion1.00324848
Decay Rate1.09E-06
L11 44475U 19049A 19228.89864375 .00000109 00000-0 00000-0 0 9999
L22 44475 0.0642 284.8613 0002890 325.2361 56.7699 1.00324848 171

Live tracking and technical data element details for EDRS-C (NORAD 44475). EDRS-C can be tracked NOW for your location showing map with azimuth and elevation plus other details from your city location.

Track the satellite on the map from your city or location and see movement details for azimuth, elevation, latitude, longitude, range, height, and movement on the map or in text.







IsCatalogInMostPopularTable: catalog: 44475, numindb: 2
Update: records affected: 1



GetName: 44475 EDRS-C

Hit Count: updated at: Wed, 21 Aug 2019 11:54:30 GMT